This is the latest recevied weather packets stored in our database for station/object K6TTR. If no packets are shown the sender has not sent any weather packets the latest 10 day(s).
| Time | Temp. | Humidity | Pressure | Rain* | Wind** | Luminosity | Snow |
|---|---|---|---|---|---|---|---|
| 1777758829 | 19.44° C | 40% | 1015.6 hPa | 0 mm | - | 128 W/m² | - |
| 1777758514 | 19.44° C | 40% | 1015.5 hPa | 0 mm | - | 874 W/m² | - |
| 1777758218 | 19.44° C | 39% | 1015.6 hPa | 0 mm | - | 283 W/m² | - |
| 1777757924 | 19.44° C | 41% | 1015.8 hPa | 0 mm | - | 912 W/m² | - |
| 1777757631 | 19.44° C | 40% | 1015.7 hPa | 0 mm | - | 153 W/m² | - |
| 1777757021 | 19.44° C | 40% | 1015.8 hPa | 0 mm | - | 257 W/m² | - |
| 1777756726 | 19.44° C | 41% | 1015.8 hPa | 0 mm | - | 835 W/m² | - |
| 1777755520 | 18.89° C | 42% | 1015.9 hPa | 0 mm | - | 232 W/m² | - |
| 1777755226 | 18.33° C | 44% | 1016 hPa | 0 mm | - | 232 W/m² | - |
| 1777754320 | 18.89° C | 43% | 1016.2 hPa | 0 mm | - | 1002 W/m² | - |
| 1777753125 | 18.33° C | 45% | 1016.4 hPa | 0 mm | - | 896 W/m² | - |
| 1777752512 | 17.78° C | 48% | 1016.5 hPa | 0 mm | - | 970 W/m² | - |
| 1777751922 | 17.78° C | 48% | 1016.5 hPa | 0 mm | - | 635 W/m² | - |
| 1777751628 | 17.22° C | 49% | 1016.5 hPa | 0 mm | - | 362 W/m² | - |
| 1777751314 | 17.22° C | 48% | 1016.5 hPa | 0 mm | - | 510 W/m² | - |
| 1777750724 | 17.22° C | 50% | 1016.5 hPa | 0 mm | - | 385 W/m² | - |
| 1777750116 | 16.67° C | 48% | 1016.3 hPa | 0 mm | - | 541 W/m² | - |
| 1777749529 | 16.67° C | 53% | 1016.3 hPa | 0 mm | - | 408 W/m² | - |
| 1777748919 | 16.11° C | 57% | 1016.3 hPa | 0 mm | - | 555 W/m² | - |
| 1777748624 | 16.11° C | 57% | 1016.4 hPa | 0 mm | - | 387 W/m² | - |
| 1777748329 | 15.56° C | 59% | 1016.4 hPa | 0 mm | - | 464 W/m² | - |
| 1777747129 | 15° C | 66% | 1016.4 hPa | 0 mm | - | 455 W/m² | - |
| 1777746520 | 15° C | 66% | 1016.4 hPa | 0 mm | - | 383 W/m² | - |
| 1777745024 | 13.89° C | 69% | 1016.4 hPa | 0 mm | - | 265 W/m² | - |
| 1777744728 | 13.33° C | 71% | 1016.4 hPa | 0 mm | - | 223 W/m² | - |
* Rain latest hour (hover to see other rain measurements)
** Current wind speed in m/s (hover to see current wind gust speed)